Glenwood, MN

7:32 PM CST on February 10, 2016 (GMT -0600)
Glenwood Municipal

Weather History for KGHW - November, 2012

Change the Weather History Date:

Friday, November 23, 2012

  Actual Average Record
Temperature  
Mean Temperature 16 °F -  
Max Temperature 21 °F 33 °F 54 °F (1974)
Min Temperature 10 °F 17 °F -9 °F (1950)
Degree Days  
Heating Degree Days 50    
Moisture  
Dew Point 11 °F    
Average Humidity 82    
Maximum Humidity 92    
Minimum Humidity 73    
Precipitation  
Precipitation 0.00 in - - ()
Sea Level Pressure  
Sea Level Pressure 30.31 in    
Wind  
Wind Speed 24 mph (NW)    
Max Wind Speed 37 mph    
Max Gust Speed 47 mph    
Visibility 8 miles    
Events Snow    
Averages and records for this station are not official NWS values.
T = Trace of Precipitation, MM = Missing Value Source: NWS Daily Summary

Daily Weather History Graph

Daily Weather History Graph

Search for Another Location

Airport or City:

Trip Planner

Search our weather history database for the weather conditions in past years. The results will help you decide how hot, cold, wet, or windy it might be!

Date:

Astronomy

Nov. 23, 2012 Rise Set
Actual Time 7:32 AM CST 4:43 PM CST
Civil Twilight 6:59 AM CST 5:16 PM CST
Nautical Twilight 6:22 AM CST 5:52 PM CST
Astronomical Twilight 5:47 AM CST 6:28 PM CST
Moon 2:08 PM CST (11/23) 2:40 AM CST (11/23)
Length of Visible Light 10h 16m
Length of Day
9h 10m
Waxing Gibbous, 80% of the Moon is Illuminated
Nov 23
Waxing Gibbous
Nov 28
Full
Dec 6
Last Quarter
Dec 13
New
Dec 19
First Quarter

Hourly Weather History & Observations

Time (CST) Temp. Windchill Dew Point Humidity Pressure Visibility Wind Dir Wind Speed Gust Speed Precip Events Conditions
12:13 AM 17.6 °F -2.8 °F 14.0 °F 86% 30.09 in 3.0 mi WNW 33.4 mph 47.2 mph N/A Snow Light Snow
12:33 AM 17.6 °F -2.5 °F 12.2 °F 79% 30.09 in 7.0 mi WNW 32.2 mph 42.6 mph N/A   Overcast
12:54 AM 17.6 °F -3.6 °F 12.2 °F 79% 30.10 in 4.0 mi WNW 36.8 mph 46.0 mph N/A Snow Light Snow
1:13 AM 17.6 °F -2.5 °F 12.2 °F 79% 30.12 in 7.0 mi WNW 32.2 mph 40.3 mph N/A Snow Light Snow
1:33 AM 15.8 °F -6.1 °F 12.2 °F 86% 30.13 in 5.0 mi WNW 36.8 mph 44.9 mph N/A Snow Light Snow
1:54 AM 15.8 °F -4.7 °F 10.4 °F 79% 30.15 in 7.0 mi WNW 31.1 mph 40.3 mph N/A Snow Light Snow
2:13 AM 14.0 °F -5.5 °F 10.4 °F 86% 30.16 in 2.5 mi NW 25.3 mph 38.0 mph N/A Snow Light Snow
2:33 AM 14.0 °F -6.2 °F 8.6 °F 79% 30.17 in 7.0 mi WNW 27.6 mph 36.8 mph N/A Snow Light Snow
2:54 AM 14.0 °F -6.2 °F 10.4 °F 86% 30.18 in 7.0 mi NW 27.6 mph 34.5 mph N/A Snow Light Snow
3:13 AM 14.0 °F -6.5 °F 10.4 °F 86% 30.19 in 7.0 mi WNW 28.8 mph 35.7 mph N/A Snow Light Snow
3:33 AM 14.0 °F -6.8 °F 8.6 °F 79% 30.19 in 7.0 mi WNW 29.9 mph 33.4 mph N/A Snow Light Snow
3:53 AM 14.0 °F -5.1 °F 10.4 °F 86% 30.20 in 4.0 mi WNW 24.2 mph 32.2 mph N/A Snow Light Snow
4:13 AM 14.0 °F -5.8 °F 10.4 °F 86% 30.20 in 5.0 mi WNW 26.5 mph 35.7 mph N/A Snow Light Snow
4:33 AM 14.0 °F -7.4 °F 10.4 °F 86% 30.21 in 5.0 mi NW 32.2 mph 39.1 mph N/A Snow Light Snow
4:53 AM 14.0 °F -7.7 °F 10.4 °F 86% 30.22 in 7.0 mi WNW 33.4 mph 38.0 mph N/A Snow Light Snow
5:13 AM 15.8 °F -4.4 °F 10.4 °F 79% 30.23 in 7.0 mi WNW 29.9 mph 38.0 mph N/A Snow Light Snow
5:34 AM 15.8 °F -2.3 °F 10.4 °F 79% 30.25 in 10.0 mi WNW 23.0 mph 33.4 mph N/A Snow Light Snow
5:53 AM 15.8 °F -2.3 °F 10.4 °F 79% 30.25 in 7.0 mi NW 23.0 mph 31.1 mph N/A Snow Light Snow
6:13 AM 15.8 °F -3.4 °F 10.4 °F 79% 30.27 in 7.0 mi WNW 26.5 mph 32.2 mph N/A Snow Light Snow
6:34 AM 15.8 °F -4.1 °F 10.4 °F 79% 30.27 in 7.0 mi NW 28.8 mph 35.7 mph N/A Snow Light Snow
7:13 AM 14.0 °F -5.1 °F 10.4 °F 86% 30.29 in 10.0 mi NW 24.2 mph 33.4 mph N/A Snow Light Snow
7:34 AM 14.0 °F -4.3 °F 10.4 °F 86% 30.30 in 10.0 mi NW 21.9 mph 29.9 mph N/A Snow Light Snow
7:53 AM 15.8 °F -3.1 °F 10.4 °F 79% 30.30 in 10.0 mi NW 25.3 mph 36.8 mph N/A Snow Light Snow
8:13 AM 15.8 °F -2.7 °F 10.4 °F 79% 30.31 in 10.0 mi WNW 24.2 mph 33.4 mph N/A Snow Light Snow
8:34 AM 15.8 °F -1.5 °F 10.4 °F 79% 30.32 in 10.0 mi NW 20.7 mph 27.6 mph N/A Snow Light Snow
8:53 AM 15.8 °F -3.1 °F 10.4 °F 79% 30.33 in 10.0 mi WNW 25.3 mph 32.2 mph N/A Snow Light Snow
9:13 AM 15.8 °F -1.5 °F 12.2 °F 86% 30.34 in 10.0 mi NW 20.7 mph 27.6 mph N/A   Overcast
9:34 AM 17.6 °F 0.5 °F 12.2 °F 79% 30.35 in 10.0 mi NW 21.9 mph 27.6 mph N/A   Overcast
9:53 AM 17.6 °F 0.1 °F 12.2 °F 79% 30.35 in 10.0 mi NW 23.0 mph 28.8 mph N/A   Overcast
10:13 AM 17.6 °F 0.9 °F 12.2 °F 79% 30.36 in 10.0 mi NW 20.7 mph 28.8 mph N/A Snow Light Snow
10:33 AM 17.6 °F -1.0 °F 12.2 °F 79% 30.36 in 10.0 mi WNW 26.5 mph 33.4 mph N/A Snow Light Snow
10:53 AM 19.4 °F 2.8 °F 12.2 °F 74% 30.37 in 10.0 mi WNW 21.9 mph 27.6 mph N/A Snow Light Snow
11:14 AM 19.4 °F 2.1 °F 12.2 °F 74% 30.37 in 10.0 mi WNW 24.2 mph 29.9 mph N/A Snow Light Snow
11:33 AM 19.4 °F 4.1 °F 12.2 °F 74% 30.37 in 10.0 mi WNW 18.4 mph 26.5 mph N/A Snow Light Snow
11:53 AM 19.4 °F 2.5 °F 12.2 °F 74% 30.36 in 10.0 mi WNW 23.0 mph 26.5 mph N/A Snow Light Snow
12:14 PM 19.4 °F 2.8 °F 12.2 °F 74% 30.37 in 10.0 mi WNW 21.9 mph 29.9 mph N/A Snow Light Snow
12:33 PM 19.4 °F 3.2 °F 12.2 °F 74% 30.36 in 10.0 mi WNW 20.7 mph 24.2 mph N/A Snow Light Snow
12:53 PM 19.4 °F 2.8 °F 12.2 °F 74% 30.36 in 10.0 mi WNW 21.9 mph - N/A Snow Light Snow
1:14 PM 21.2 °F 6.4 °F 14.0 °F 74% 30.36 in 10.0 mi WNW 18.4 mph 23.0 mph N/A Snow Light Snow
1:33 PM 19.4 °F 1.8 °F 12.2 °F 74% 30.36 in 10.0 mi WNW 25.3 mph - N/A Snow Light Snow
1:53 PM 17.6 °F 0.1 °F 12.2 °F 79% 30.36 in 10.0 mi WNW 23.0 mph 26.5 mph N/A Snow Light Snow
2:13 PM 17.6 °F 0.9 °F 12.2 °F 79% 30.37 in 10.0 mi WNW 20.7 mph 25.3 mph N/A   Mostly Cloudy
2:33 PM 17.6 °F 2.2 °F 12.2 °F 79% 30.37 in 10.0 mi WNW 17.3 mph 26.5 mph N/A   Scattered Clouds
2:53 PM 17.6 °F 2.2 °F 12.2 °F 79% 30.37 in 10.0 mi WNW 17.3 mph - N/A   Mostly Cloudy
3:13 PM 17.6 °F 1.7 °F 12.2 °F 79% 30.38 in 10.0 mi NW 18.4 mph 21.9 mph N/A   Mostly Cloudy
3:33 PM 17.6 °F 2.2 °F 10.4 °F 73% 30.38 in 7.0 mi WNW 17.3 mph 23.0 mph N/A Snow Light Snow
3:53 PM 15.8 °F 0.3 °F 10.4 °F 79% 30.39 in 10.0 mi WNW 16.1 mph - N/A Snow Light Snow
4:13 PM 15.8 °F -1.9 °F 10.4 °F 79% 30.39 in 10.0 mi WNW 21.9 mph - N/A Snow Light Snow
4:33 PM 15.8 °F 0.9 °F 10.4 °F 79% 30.39 in 10.0 mi WNW 15.0 mph - N/A   Overcast
4:54 PM 15.8 °F 0.9 °F 10.4 °F 79% 30.38 in 7.0 mi WNW 15.0 mph - N/A Snow Light Snow
5:13 PM 15.8 °F 1.4 °F 10.4 °F 79% 30.38 in 5.0 mi WNW 13.8 mph - N/A Snow Light Snow
5:33 PM 14.0 °F -3.0 °F 10.4 °F 86% 30.38 in 10.0 mi WNW 18.4 mph - N/A   Overcast
5:53 PM 14.0 °F -1.4 °F 8.6 °F 79% 30.38 in 10.0 mi WNW 15.0 mph - N/A   Overcast
6:34 PM 12.2 °F -2.5 °F 8.6 °F 85% 30.38 in 10.0 mi NW 12.7 mph 17.3 mph N/A   Mostly Cloudy
6:52 PM 12.2 °F -1.0 °F 8.6 °F 85% 30.38 in 10.0 mi WNW 10.4 mph - N/A   Scattered Clouds
7:13 PM 12.2 °F -1.8 °F 8.6 °F 85% 30.39 in 10.0 mi WNW 11.5 mph - N/A   Mostly Cloudy
7:33 PM 12.2 °F -1.8 °F 8.6 °F 85% 30.38 in 10.0 mi WNW 11.5 mph - N/A Snow Light Snow
7:53 PM 14.0 °F -0.2 °F 10.4 °F 86% 30.38 in 10.0 mi NW 12.7 mph 17.3 mph N/A Snow Light Snow
8:13 PM 14.0 °F 2.9 °F 10.4 °F 86% 30.37 in 7.0 mi NW 8.1 mph - N/A Snow Light Snow
8:34 PM 14.0 °F 5.1 °F 10.4 °F 86% 30.36 in 7.0 mi NNW 5.8 mph - N/A Snow Light Snow
8:53 PM 14.0 °F 6.5 °F 10.4 °F 86% 30.36 in 7.0 mi NNW 4.6 mph - N/A Snow Light Snow
9:13 PM 12.2 °F 6.1 °F 8.6 °F 85% 30.36 in 10.0 mi North 3.5 mph - N/A Snow Light Snow
9:33 PM 10.4 °F 4.0 °F 8.6 °F 92% 30.35 in 10.0 mi North 3.5 mph - N/A Snow Light Snow
9:54 PM 10.4 °F 4.0 °F 8.6 °F 92% 30.35 in 10.0 mi NNW 3.5 mph - N/A   Scattered Clouds
10:13 PM 10.4 °F - 6.8 °F 85% 30.35 in 10.0 mi Calm Calm - N/A   Scattered Clouds
10:32 PM 10.4 °F - 6.8 °F 85% 30.35 in 10.0 mi Calm Calm - N/A Snow Light Snow
10:54 PM 10.4 °F 0.8 °F 8.6 °F 92% 30.35 in 10.0 mi WNW 5.8 mph - N/A   Mostly Cloudy
11:13 PM 12.2 °F 2.9 °F 10.4 °F 92% 30.35 in 10.0 mi WNW 5.8 mph - N/A Snow Light Snow
11:32 PM 12.2 °F 4.3 °F 8.6 °F 85% 30.34 in 7.0 mi NNW 4.6 mph - N/A Snow Light Snow
11:53 PM 10.4 °F 4.0 °F 8.6 °F 92% 30.34 in 5.0 mi NNW 3.5 mph - N/A Snow Light Snow